Voltar ao catálogo

H-2 R/B

AtivoPO
NORAD 24279·ROCKET BODY·🇯🇵 Japan

Lançado Aug 17, 1996 de Tanegashima Space Center

Loading…

Próximas Passagens (próximas 24 horas)

TLE

AtualizadoSource: Space-Track

Época: Sep 14, 2026, 18:13 UTC

1 24279U 96046C   26257.75950784  .00000006  00000-0  55084-4 0  9998
2 24279  98.7599 184.8210 0298698 315.9876  68.1204 13.47493358478634

Acompanhe H-2 R/B em tempo real com AllMySat

Download on the App Store